TVS32R LGIR-LKPR

Flight info

Callsign TVS32R
Flight time 2h 39m
Altitude 36000
Route EPALO UM749 ATV DCT TALAS DCT LONTA/N0451F380 UM749 UDVAR DCT TONDO DCT BEGLA DCT NAVTI DCT BODAL DCT VLM
Aircraft B38M/M-SDE3FGHIJ1J3J4J7M3P2RWXY/LB1D1

Departure

Time 2026-05-05 14:52
Airport Heraklion International Nikos Kazantzakis Airport (LGIR)

Arrival

Time 2026-05-05 17:31
Airport Václav Havel Airport Prague (LKPR)
Time Latitude Longitude Altitude Speed Heading
2026-05-05 14:19 35.33823 25.17413 97 ft 0 kts 317°
2026-05-05 14:48 35.33824 25.17411 93 ft 2 kts 317°
2026-05-05 14:48 35.33847 25.17386 93 ft 7 kts 323°
2026-05-05 14:48 35.33897 25.17380 94 ft 8 kts 19°
2026-05-05 14:49 35.33916 25.17443 93 ft 10 kts 94°
2026-05-05 14:49 35.33908 25.17555 93 ft 17 kts 95°
2026-05-05 14:49 35.33897 25.17721 96 ft 20 kts 95°
2026-05-05 14:49 35.33884 25.17901 94 ft 22 kts 95°
2026-05-05 14:50 35.33871 25.18095 96 ft 24 kts 95°
2026-05-05 14:50 35.33857 25.18299 94 ft 25 kts 95°
2026-05-05 14:50 35.33842 25.18504 96 ft 22 kts 95°
2026-05-05 14:50 35.33830 25.18687 93 ft 21 kts 95°
2026-05-05 14:51 35.33818 25.18854 92 ft 17 kts 95°
2026-05-05 14:51 35.33846 25.18975 93 ft 15 kts 58°
2026-05-05 14:51 35.33890 25.19040 91 ft 6 kts
2026-05-05 14:51 35.33904 25.19019 94 ft 1 kts 287°
2026-05-05 14:52 35.33909 25.18978 91 ft 15 kts 275°
2026-05-05 14:52 35.33942 25.18503 95 ft 95 kts 275°
2026-05-05 14:52 35.34016 25.17414 104 ft 157 kts 274°
2026-05-05 14:52 35.34120 25.16022 770 ft 167 kts 279°
2026-05-05 14:53 35.34462 25.14661 1660 ft 172 kts 304°
2026-05-05 14:53 35.35349 25.13651 2346 ft 179 kts 330°
2026-05-05 14:53 35.36550 25.13016 2886 ft 197 kts 340°
2026-05-05 14:53 35.37913 25.12491 3540 ft 212 kts 342°
2026-05-05 14:54 35.39385 25.11979 4204 ft 227 kts 344°
2026-05-05 14:54 35.40939 25.11459 5011 ft 235 kts 345°
2026-05-05 14:54 35.42561 25.10913 5735 ft 250 kts 346°
2026-05-05 14:54 35.44275 25.10332 6511 ft 259 kts 346°
2026-05-05 14:55 35.46001 25.09745 7511 ft 258 kts 345°
2026-05-05 14:55 35.47749 25.09149 8385 ft 263 kts 345°
2026-05-05 14:55 35.49500 25.08553 9265 ft 266 kts 345°
2026-05-05 14:55 35.51321 25.07933 10142 ft 270 kts 344°
2026-05-05 14:56 35.53123 25.07319 10927 ft 274 kts 344°
2026-05-05 14:56 35.54967 25.06692 11738 ft 276 kts 344°
2026-05-05 14:56 35.56841 25.06053 12423 ft 286 kts 343°
2026-05-05 14:56 35.58838 25.05372 12783 ft 306 kts 343°
2026-05-05 14:57 35.60953 25.04651 13137 ft 324 kts 343°
2026-05-05 14:57 35.63168 25.03895 13674 ft 335 kts 343°
2026-05-05 14:57 35.65419 25.03126 14437 ft 336 kts 343°
2026-05-05 14:57 35.67655 25.02361 15137 ft 339 kts 343°
2026-05-05 14:58 35.69970 25.01569 15865 ft 342 kts 343°
2026-05-05 14:58 35.72212 25.00682 16534 ft 344 kts 337°
2026-05-05 14:58 35.74450 24.99598 17209 ft 347 kts 337°
2026-05-05 14:58 35.76715 24.98521 17886 ft 350 kts 338°
2026-05-05 14:59 35.79002 24.97444 18537 ft 353 kts 338°
2026-05-05 14:59 35.81309 24.96363 19107 ft 356 kts 338°
2026-05-05 14:59 35.83631 24.95277 19682 ft 358 kts 338°
2026-05-05 14:59 35.85968 24.94184 20252 ft 361 kts 338°
2026-05-05 15:00 35.88320 24.93083 20812 ft 363 kts 338°
2026-05-05 15:00 35.89890 24.92349 21179 ft 364 kts 337°
2026-05-05 15:00 35.93075 24.90858 21921 ft 367 kts 337°
2026-05-05 15:00 35.95476 24.89733 22454 ft 370 kts 337°
2026-05-05 15:01 35.97889 24.88602 22993 ft 372 kts 337°
2026-05-05 15:01 36.00320 24.87461 23523 ft 375 kts 337°
2026-05-05 15:01 36.02735 24.86327 23961 ft 378 kts 337°
2026-05-05 15:01 36.05195 24.85171 24421 ft 379 kts 337°
2026-05-05 15:02 36.07663 24.84002 24859 ft 381 kts 337°
2026-05-05 15:02 36.10146 24.82826 25294 ft 382 kts 337°
2026-05-05 15:02 36.12638 24.81645 25735 ft 384 kts 337°
2026-05-05 15:02 36.15135 24.80461 26152 ft 386 kts 337°
2026-05-05 15:03 36.17648 24.79268 26564 ft 387 kts 337°
2026-05-05 15:03 36.20168 24.78072 26978 ft 389 kts 337°
2026-05-05 15:03 36.22702 24.76868 27369 ft 391 kts 337°
2026-05-05 15:03 36.25246 24.75658 27768 ft 392 kts 337°
2026-05-05 15:04 36.27804 24.74440 28153 ft 394 kts 337°
2026-05-05 15:04 36.30367 24.73220 28528 ft 396 kts 337°
2026-05-05 15:04 36.31843 24.72517 28740 ft 397 kts 337°
2026-05-05 15:04 36.34428 24.71284 29110 ft 399 kts 337°
2026-05-05 15:05 36.39625 24.68803 29832 ft 402 kts 338°
2026-05-05 15:05 36.42247 24.67551 30175 ft 404 kts 338°
2026-05-05 15:05 36.44870 24.66296 30464 ft 405 kts 337°
2026-05-05 15:06 36.47505 24.65036 30787 ft 406 kts 337°
2026-05-05 15:06 36.50111 24.63788 31154 ft 405 kts 337°
2026-05-05 15:06 36.52737 24.62529 31540 ft 404 kts 337°
2026-05-05 15:06 36.55361 24.61271 31914 ft 404 kts 337°
2026-05-05 15:07 36.57979 24.60015 32277 ft 403 kts 337°
2026-05-05 15:07 36.60597 24.58758 32639 ft 403 kts 336°
2026-05-05 15:07 36.63212 24.57501 33006 ft 402 kts 336°
2026-05-05 15:07 36.65824 24.56245 33368 ft 401 kts 336°
2026-05-05 15:08 36.68422 24.54994 33735 ft 401 kts 336°
2026-05-05 15:08 36.71026 24.53741 34091 ft 400 kts 336°
2026-05-05 15:08 36.73618 24.52493 34395 ft 400 kts 336°
2026-05-05 15:08 36.76123 24.51014 34681 ft 397 kts 330°
2026-05-05 15:09 36.78590 24.49448 34956 ft 398 kts 331°
2026-05-05 15:09 36.81068 24.47900 35222 ft 398 kts 331°
2026-05-05 15:09 36.83516 24.46383 35487 ft 397 kts 332°
2026-05-05 15:09 36.86004 24.44847 35736 ft 398 kts 332°
2026-05-05 15:10 36.88481 24.43318 35979 ft 398 kts 332°
2026-05-05 15:10 36.93455 24.40247 36073 ft 397 kts 332°
2026-05-05 15:11 36.98400 24.37190 36067 ft 397 kts 331°
2026-05-05 15:11 37.03347 24.34127 36062 ft 397 kts 331°
2026-05-05 15:12 37.08294 24.31059 36062 ft 397 kts 331°
2026-05-05 15:12 37.13207 24.28008 36061 ft 397 kts 331°
2026-05-05 15:13 37.18156 24.24931 36058 ft 397 kts 331°
2026-05-05 15:13 37.23104 24.21849 36053 ft 397 kts 331°
2026-05-05 15:14 37.28047 24.18766 36057 ft 396 kts 331°
2026-05-05 15:14 37.32979 24.15684 36050 ft 396 kts 331°
2026-05-05 15:15 37.37924 24.12591 36051 ft 396 kts 331°
2026-05-05 15:15 37.42868 24.09494 36049 ft 396 kts 331°
2026-05-05 15:16 37.47778 24.06413 36046 ft 396 kts 331°
2026-05-05 15:16 37.52708 24.03315 36046 ft 396 kts 331°
2026-05-05 15:17 37.57649 24.00206 36041 ft 396 kts 331°
2026-05-05 15:17 37.62585 23.97095 36045 ft 396 kts 331°
2026-05-05 15:18 37.67509 23.93987 36046 ft 396 kts 331°
2026-05-05 15:18 37.72404 23.90893 36045 ft 396 kts 331°
2026-05-05 15:19 37.77341 23.87768 36045 ft 396 kts 331°
2026-05-05 15:19 37.82267 23.84646 36052 ft 396 kts 331°
2026-05-05 15:20 37.87207 23.81509 36047 ft 396 kts 331°
2026-05-05 15:20 37.92234 23.78636 36032 ft 397 kts 333°
2026-05-05 15:21 37.97254 23.75811 36043 ft 398 kts 334°
2026-05-05 15:21 38.02311 23.72953 36030 ft 398 kts 334°
2026-05-05 15:22 38.07362 23.70092 36030 ft 398 kts 334°
2026-05-05 15:22 38.12414 23.67227 36021 ft 397 kts 334°
2026-05-05 15:23 38.17460 23.64362 36016 ft 397 kts 334°
2026-05-05 15:23 38.22506 23.61491 36027 ft 397 kts 334°
2026-05-05 15:24 38.27510 23.58640 36027 ft 397 kts 334°
2026-05-05 15:24 38.32553 23.55762 36027 ft 396 kts 334°
2026-05-05 15:25 38.37585 23.52887 36029 ft 397 kts 334°
2026-05-05 15:25 38.42626 23.50002 36021 ft 396 kts 333°
2026-05-05 15:26 38.46809 23.47604 36039 ft 396 kts 333°
2026-05-05 15:26 38.51839 23.44718 36020 ft 396 kts 333°
2026-05-05 15:27 38.56869 23.41827 36031 ft 397 kts 333°
2026-05-05 15:27 38.61122 23.39379 36033 ft 397 kts 333°
2026-05-05 15:28 38.66158 23.36475 36029 ft 397 kts 333°
2026-05-05 15:28 38.71192 23.33569 36038 ft 397 kts 333°
2026-05-05 15:29 38.76228 23.30657 36026 ft 397 kts 333°
2026-05-05 15:29 38.81271 23.27737 36033 ft 397 kts 333°
2026-05-05 15:30 38.86274 23.24834 36029 ft 397 kts 333°
2026-05-05 15:30 38.91302 23.21913 36033 ft 397 kts 333°
2026-05-05 15:31 38.96332 23.18987 36025 ft 396 kts 333°
2026-05-05 15:31 39.01361 23.16055 36029 ft 396 kts 333°
2026-05-05 15:32 39.06382 23.13125 36025 ft 396 kts 333°
2026-05-05 15:32 39.11404 23.10189 36025 ft 396 kts 333°
2026-05-05 15:33 39.16423 23.07250 36031 ft 396 kts 333°
2026-05-05 15:33 39.21409 23.04327 36025 ft 396 kts 333°
2026-05-05 15:34 39.26423 23.01381 36023 ft 396 kts 333°
2026-05-05 15:34 39.31447 22.98426 36021 ft 396 kts 333°
2026-05-05 15:35 39.36464 22.95470 36022 ft 396 kts 333°
2026-05-05 15:35 39.41476 22.92511 36027 ft 396 kts 333°
2026-05-05 15:36 39.46484 22.89552 36032 ft 396 kts 333°
2026-05-05 15:36 39.51460 22.86605 36003 ft 395 kts 333°
2026-05-05 15:37 39.56462 22.83639 36018 ft 396 kts 333°
2026-05-05 15:37 39.61470 22.80665 36017 ft 395 kts 334°
2026-05-05 15:38 39.66473 22.77689 36022 ft 395 kts 333°
2026-05-05 15:38 39.71462 22.74716 36017 ft 394 kts 333°
2026-05-05 15:39 39.76454 22.71736 36027 ft 394 kts 333°
2026-05-05 15:39 39.81442 22.68756 36019 ft 394 kts 333°
2026-05-05 15:40 39.86391 22.65793 36014 ft 394 kts 333°
2026-05-05 15:40 39.91371 22.62807 36014 ft 394 kts 333°
2026-05-05 15:41 39.96350 22.59816 36026 ft 394 kts 333°
2026-05-05 15:41 40.01339 22.56815 36025 ft 394 kts 333°
2026-05-05 15:42 40.06323 22.53812 36030 ft 394 kts 333°
2026-05-05 15:42 40.11307 22.50804 36035 ft 394 kts 333°
2026-05-05 15:43 40.16293 22.47790 36033 ft 395 kts 333°
2026-05-05 15:43 40.21283 22.44768 36033 ft 395 kts 333°
2026-05-05 15:44 40.26239 22.41762 36036 ft 395 kts 333°
2026-05-05 15:44 40.31229 22.38730 36031 ft 395 kts 333°
2026-05-05 15:45 40.36226 22.35690 36033 ft 396 kts 332°
2026-05-05 15:45 40.38727 22.34167 36209 ft 396 kts 333°
2026-05-05 15:45 40.41227 22.32642 36427 ft 396 kts 332°
2026-05-05 15:45 40.43733 22.31114 36577 ft 398 kts 332°
2026-05-05 15:46 40.46218 22.29596 36823 ft 398 kts 332°
2026-05-05 15:46 40.48732 22.28060 37040 ft 399 kts 332°
2026-05-05 15:46 40.51250 22.26519 37270 ft 399 kts 332°
2026-05-05 15:46 40.53765 22.24980 37483 ft 399 kts 333°
2026-05-05 15:47 40.56281 22.23438 37686 ft 399 kts 333°
2026-05-05 15:47 40.57949 22.22415 37819 ft 399 kts 333°
2026-05-05 15:47 40.61316 22.20348 38022 ft 399 kts 333°
2026-05-05 15:48 40.66359 22.17250 38023 ft 399 kts 333°
2026-05-05 15:48 40.71388 22.14153 38023 ft 399 kts 333°
2026-05-05 15:49 40.76392 22.11069 38021 ft 399 kts 333°
2026-05-05 15:49 40.81431 22.07958 38021 ft 400 kts 333°
2026-05-05 15:50 40.86477 22.04837 38028 ft 399 kts 333°
2026-05-05 15:50 40.91503 22.01723 38029 ft 399 kts 333°
2026-05-05 15:51 40.96512 21.98615 38027 ft 399 kts 332°
2026-05-05 15:51 41.01544 21.95487 38031 ft 400 kts 333°
2026-05-05 15:52 41.06586 21.92349 38038 ft 400 kts 333°
2026-05-05 15:52 41.11886 21.89972 38037 ft 403 kts 339°
2026-05-05 15:53 41.17240 21.87739 38027 ft 403 kts 339°
2026-05-05 15:53 41.22588 21.85506 38025 ft 403 kts 339°
2026-05-05 15:54 41.27944 21.83267 38029 ft 403 kts 340°
2026-05-05 15:54 41.33303 21.81022 38027 ft 404 kts 339°
2026-05-05 15:55 41.38632 21.78787 38017 ft 404 kts 339°
2026-05-05 15:55 41.44005 21.76529 38010 ft 405 kts 339°
2026-05-05 15:56 41.49382 21.74265 38000 ft 405 kts 339°
2026-05-05 15:56 41.54764 21.71996 38003 ft 406 kts 339°
2026-05-05 15:57 41.60146 21.69722 38006 ft 406 kts 339°
2026-05-05 15:57 41.65536 21.67441 37998 ft 406 kts 339°
2026-05-05 15:58 41.70896 21.65169 38003 ft 407 kts 339°
2026-05-05 15:58 41.76288 21.62879 37992 ft 407 kts 339°
2026-05-05 15:59 41.81703 21.60575 37995 ft 408 kts 339°
2026-05-05 15:59 41.87124 21.58265 37997 ft 408 kts 339°
2026-05-05 16:00 41.92538 21.55953 37999 ft 409 kts 339°
2026-05-05 16:00 41.97967 21.53631 37996 ft 409 kts 339°
2026-05-05 16:01 42.03355 21.51323 37992 ft 409 kts 339°
2026-05-05 16:01 42.08800 21.48985 37996 ft 410 kts 340°
2026-05-05 16:02 42.14241 21.46645 37996 ft 411 kts 340°
2026-05-05 16:02 42.19689 21.44298 37999 ft 412 kts 340°
2026-05-05 16:03 42.25148 21.41943 38021 ft 412 kts 340°
2026-05-05 16:03 42.30579 21.39594 38010 ft 412 kts 340°
2026-05-05 16:04 42.36047 21.37226 38019 ft 413 kts 340°
2026-05-05 16:04 42.41534 21.34845 38020 ft 414 kts 340°
2026-05-05 16:05 42.47019 21.32460 38025 ft 415 kts 340°
2026-05-05 16:05 42.52493 21.30076 38027 ft 415 kts 340°
2026-05-05 16:06 42.58027 21.27661 38022 ft 416 kts 340°
2026-05-05 16:06 42.63510 21.25264 38025 ft 416 kts 340°
2026-05-05 16:07 42.69032 21.22846 38028 ft 417 kts 340°
2026-05-05 16:07 42.74559 21.20420 38024 ft 417 kts 340°
2026-05-05 16:08 42.80096 21.17986 38027 ft 418 kts 340°
2026-05-05 16:08 42.85636 21.15546 38028 ft 419 kts 340°
2026-05-05 16:09 42.91189 21.13095 38019 ft 419 kts 340°
2026-05-05 16:09 42.96709 21.10655 38021 ft 420 kts 340°
2026-05-05 16:10 43.02280 21.08187 38016 ft 420 kts 340°
2026-05-05 16:10 43.07847 21.05717 38011 ft 420 kts 340°
2026-05-05 16:11 43.13337 21.03008 38008 ft 420 kts 336°
2026-05-05 16:12 43.24170 20.97044 37992 ft 421 kts 336°
2026-05-05 16:13 43.37775 20.89593 38016 ft 422 kts 337°
2026-05-05 16:13 43.43234 20.86592 37968 ft 421 kts 337°
2026-05-05 16:14 43.53260 20.81067 37964 ft 422 kts 337°
2026-05-05 16:15 43.64146 20.75046 37949 ft 423 kts 337°
2026-05-05 16:16 43.75082 20.68973 37929 ft 423 kts 337°
2026-05-05 16:17 43.83298 20.64395 37941 ft 425 kts 337°
2026-05-05 16:18 43.91501 20.59810 37931 ft 425 kts 336°
2026-05-05 16:19 43.99771 20.55174 37934 ft 426 kts 336°
2026-05-05 16:19 44.07984 20.50557 37951 ft 427 kts 337°
2026-05-05 16:20 44.19011 20.44335 37943 ft 427 kts 336°
2026-05-05 16:22 44.32800 20.36519 37949 ft 428 kts 336°
2026-05-05 16:23 44.43654 20.30339 37942 ft 428 kts 336°
2026-05-05 16:23 44.51749 20.25714 37947 ft 429 kts 336°
2026-05-05 16:24 44.57280 20.22545 37937 ft 429 kts 336°
2026-05-05 16:25 44.65543 20.17799 37939 ft 429 kts 336°
2026-05-05 16:25 44.73843 20.13017 37941 ft 429 kts 336°
2026-05-05 16:26 44.84866 20.06644 37942 ft 430 kts 336°
2026-05-05 16:27 44.90407 20.03431 37937 ft 430 kts 336°
2026-05-05 16:27 44.95838 19.99927 37936 ft 429 kts 326°
2026-05-05 16:28 45.00748 19.95117 37941 ft 429 kts 326°
2026-05-05 16:28 45.05710 19.90409 37931 ft 430 kts 326°
2026-05-05 16:29 45.10646 19.85738 37942 ft 430 kts 326°
2026-05-05 16:29 45.15631 19.81014 37939 ft 430 kts 326°
2026-05-05 16:30 45.20618 19.76277 37932 ft 431 kts 326°
2026-05-05 16:30 45.25595 19.71539 37931 ft 431 kts 326°
2026-05-05 16:31 45.30539 19.66822 37932 ft 431 kts 326°
2026-05-05 16:31 45.35520 19.62062 37925 ft 431 kts 326°
2026-05-05 16:32 45.40504 19.57287 37922 ft 432 kts 326°
2026-05-05 16:32 45.45490 19.52500 37930 ft 432 kts 326°
2026-05-05 16:33 45.50478 19.47701 37920 ft 432 kts 325°
2026-05-05 16:33 45.55437 19.42918 37924 ft 432 kts 325°
2026-05-05 16:34 45.60420 19.38103 37926 ft 432 kts 325°
2026-05-05 16:34 45.65406 19.33274 37920 ft 433 kts 325°
2026-05-05 16:35 45.70387 19.28439 37926 ft 433 kts 325°
2026-05-05 16:35 45.75371 19.23591 37925 ft 433 kts 325°
2026-05-05 16:36 45.80321 19.18766 37929 ft 433 kts 325°
2026-05-05 16:36 45.85298 19.13903 37927 ft 433 kts 325°
2026-05-05 16:37 45.90279 19.09026 37924 ft 433 kts 325°
2026-05-05 16:37 45.95257 19.04141 37926 ft 433 kts 325°
2026-05-05 16:38 46.00236 18.99244 37922 ft 433 kts 325°
2026-05-05 16:38 46.05213 18.94339 37921 ft 433 kts 325°
2026-05-05 16:39 46.10180 18.89431 37920 ft 433 kts 325°
2026-05-05 16:39 46.15145 18.84515 37925 ft 433 kts 325°
2026-05-05 16:40 46.20111 18.79587 37925 ft 433 kts 325°
2026-05-05 16:40 46.25050 18.74676 37926 ft 433 kts 325°
2026-05-05 16:41 46.30015 18.69727 37923 ft 433 kts 325°
2026-05-05 16:41 46.34980 18.64767 37925 ft 433 kts 325°
2026-05-05 16:42 46.39948 18.59793 37926 ft 433 kts 324°
2026-05-05 16:42 46.44899 18.54824 37924 ft 434 kts 324°
2026-05-05 16:43 46.49872 18.49823 37925 ft 434 kts 324°
2026-05-05 16:43 46.54830 18.44825 37923 ft 434 kts 324°
2026-05-05 16:44 46.59788 18.39816 37920 ft 434 kts 324°
2026-05-05 16:44 46.64742 18.34799 37935 ft 434 kts 324°
2026-05-05 16:45 46.69664 18.29804 37924 ft 434 kts 324°
2026-05-05 16:45 46.74615 18.24767 37926 ft 434 kts 324°
2026-05-05 16:46 46.79561 18.19725 37925 ft 434 kts 324°
2026-05-05 16:46 46.84520 18.14657 37929 ft 434 kts 324°
2026-05-05 16:47 46.89480 18.09576 37928 ft 434 kts 324°
2026-05-05 16:47 46.94422 18.04504 37921 ft 434 kts 324°
2026-05-05 16:48 46.99366 17.99416 37930 ft 434 kts 324°
2026-05-05 16:48 47.04311 17.94316 37923 ft 434 kts 324°
2026-05-05 16:49 47.09250 17.89210 37930 ft 433 kts 324°
2026-05-05 16:49 47.14146 17.84137 37912 ft 433 kts 324°
2026-05-05 16:50 47.19062 17.79032 37915 ft 433 kts 324°
2026-05-05 16:50 47.23981 17.73912 37901 ft 432 kts 323°
2026-05-05 16:51 47.28892 17.68788 37887 ft 432 kts 323°
2026-05-05 16:51 47.33798 17.63658 37889 ft 432 kts 323°
2026-05-05 16:52 47.38698 17.58522 37883 ft 432 kts 323°
2026-05-05 16:52 47.43610 17.53361 37884 ft 432 kts 323°
2026-05-05 16:53 47.48512 17.48198 37886 ft 432 kts 323°
2026-05-05 16:53 47.53377 17.43063 37884 ft 432 kts 323°
2026-05-05 16:54 47.58272 17.37884 37880 ft 432 kts 323°
2026-05-05 16:54 47.60721 17.35289 37704 ft 433 kts 323°
2026-05-05 16:54 47.63163 17.32698 37238 ft 430 kts 323°
2026-05-05 16:55 47.65592 17.30117 36811 ft 430 kts 323°
2026-05-05 16:55 47.68022 17.27532 36532 ft 430 kts 323°
2026-05-05 16:55 47.70465 17.24930 36267 ft 431 kts 323°
2026-05-05 16:55 47.72902 17.22332 36017 ft 431 kts 323°
2026-05-05 16:56 47.75341 17.19729 35847 ft 431 kts 323°
2026-05-05 16:56 47.77775 17.17128 35834 ft 432 kts 323°
2026-05-05 16:56 47.82671 17.11909 35833 ft 433 kts 326°
2026-05-05 16:57 47.87744 17.07168 35825 ft 433 kts 326°
2026-05-05 16:57 47.92743 17.02415 35826 ft 433 kts 326°
2026-05-05 16:58 47.96968 16.98383 35819 ft 433 kts 326°
2026-05-05 16:58 48.02036 16.93535 35815 ft 433 kts 326°
2026-05-05 16:59 48.07112 16.88669 35788 ft 433 kts 326°
2026-05-05 16:59 48.12181 16.83798 35783 ft 432 kts 326°
2026-05-05 17:00 48.16854 16.79297 35766 ft 433 kts 326°
2026-05-05 17:00 48.21913 16.74413 35777 ft 432 kts 326°
2026-05-05 17:01 48.26944 16.69544 35778 ft 432 kts 326°
2026-05-05 17:01 48.32004 16.64636 35770 ft 432 kts 325°
2026-05-05 17:02 48.37052 16.59727 35767 ft 432 kts 325°
2026-05-05 17:02 48.42103 16.54804 35758 ft 432 kts 325°
2026-05-05 17:03 48.47155 16.49868 35755 ft 432 kts 325°
2026-05-05 17:03 48.52168 16.44959 35741 ft 433 kts 325°
2026-05-05 17:04 48.57016 16.39591 35743 ft 432 kts 321°
2026-05-05 17:04 48.61799 16.34091 35731 ft 432 kts 321°
2026-05-05 17:05 48.66597 16.28607 35725 ft 432 kts 321°
2026-05-05 17:05 48.71404 16.23106 35722 ft 432 kts 321°
2026-05-05 17:06 48.76200 16.17603 35718 ft 433 kts 321°
2026-05-05 17:06 48.81001 16.12082 35712 ft 433 kts 321°
2026-05-05 17:07 48.85806 16.06543 35723 ft 433 kts 320°
2026-05-05 17:07 48.90574 16.01032 35722 ft 434 kts 320°
2026-05-05 17:08 48.92979 15.98248 35463 ft 433 kts 320°
2026-05-05 17:08 48.95378 15.95467 35152 ft 433 kts 320°
2026-05-05 17:08 48.97771 15.92690 34842 ft 433 kts 320°
2026-05-05 17:08 49.00163 15.89909 34537 ft 433 kts 320°
2026-05-05 17:09 49.02563 15.87117 34196 ft 434 kts 320°
2026-05-05 17:09 49.04957 15.84328 33715 ft 434 kts 320°
2026-05-05 17:09 49.07359 15.81526 33158 ft 435 kts 320°
2026-05-05 17:09 49.09766 15.78715 32601 ft 437 kts 320°
2026-05-05 17:10 49.12185 15.75886 32108 ft 439 kts 320°
2026-05-05 17:10 49.14615 15.73040 31740 ft 441 kts 320°
2026-05-05 17:10 49.17054 15.70181 31380 ft 443 kts 320°
2026-05-05 17:10 49.19500 15.67309 31031 ft 444 kts 320°
2026-05-05 17:11 49.21957 15.64420 30682 ft 446 kts 320°
2026-05-05 17:11 49.24423 15.61518 30339 ft 447 kts 320°
2026-05-05 17:11 49.26896 15.58603 29998 ft 449 kts 320°
2026-05-05 17:11 49.29377 15.55677 29646 ft 450 kts 320°
2026-05-05 17:12 49.31858 15.52745 29249 ft 451 kts 320°
2026-05-05 17:12 49.34318 15.49834 28889 ft 453 kts 320°
2026-05-05 17:12 49.36850 15.46835 28589 ft 455 kts 320°
2026-05-05 17:12 49.39324 15.43901 28294 ft 456 kts 320°
2026-05-05 17:13 49.41837 15.40915 28007 ft 457 kts 320°
2026-05-05 17:13 49.44357 15.37918 27721 ft 459 kts 320°
2026-05-05 17:13 49.46890 15.34902 27357 ft 460 kts 320°
2026-05-05 17:13 49.49418 15.31887 26962 ft 458 kts 320°
2026-05-05 17:14 49.51920 15.28900 26530 ft 451 kts 320°
2026-05-05 17:14 49.54387 15.25949 25981 ft 447 kts 320°
2026-05-05 17:14 49.56833 15.23020 25440 ft 444 kts 320°
2026-05-05 17:14 49.59270 15.20099 24921 ft 442 kts 320°
2026-05-05 17:15 49.61695 15.17188 24458 ft 441 kts 320°
2026-05-05 17:15 49.64083 15.14317 24021 ft 439 kts 320°
2026-05-05 17:15 49.66494 15.11416 23590 ft 438 kts 320°
2026-05-05 17:15 49.68892 15.08526 23115 ft 436 kts 320°
2026-05-05 17:16 49.71229 15.05568 22605 ft 433 kts 316°
2026-05-05 17:16 49.73502 15.02542 22100 ft 430 kts 317°
2026-05-05 17:16 49.75769 14.99544 21599 ft 426 kts 317°
2026-05-05 17:16 49.78016 14.96578 21110 ft 423 kts 317°
2026-05-05 17:17 49.80248 14.93631 20636 ft 420 kts 317°
2026-05-05 17:17 49.82470 14.90695 20145 ft 416 kts 317°
2026-05-05 17:17 49.84635 14.87827 19497 ft 415 kts 317°
2026-05-05 17:17 49.86803 14.84933 18784 ft 406 kts 316°
2026-05-05 17:18 49.88920 14.82105 18099 ft 396 kts 316°
2026-05-05 17:18 49.90983 14.79347 17319 ft 387 kts 316°
2026-05-05 17:18 49.93006 14.76640 16546 ft 379 kts 316°
2026-05-05 17:18 49.94992 14.73978 15787 ft 373 kts 316°
2026-05-05 17:19 49.96936 14.71371 15073 ft 367 kts 316°
2026-05-05 17:19 49.98804 14.68862 14550 ft 356 kts 316°
2026-05-05 17:19 50.00678 14.66344 13995 ft 347 kts 316°
2026-05-05 17:19 50.02287 14.63629 13439 ft 335 kts 303°
2026-05-05 17:20 50.03651 14.60771 12857 ft 335 kts 304°
2026-05-05 17:20 50.05063 14.57849 12156 ft 342 kts 304°
2026-05-05 17:20 50.06509 14.54874 11463 ft 343 kts 304°
2026-05-05 17:20 50.07932 14.51948 10801 ft 336 kts 304°
2026-05-05 17:21 50.09327 14.49081 10410 ft 323 kts 304°
2026-05-05 17:21 50.10643 14.46375 10222 ft 304 kts 304°
2026-05-05 17:21 50.11888 14.43809 9925 ft 292 kts 304°
2026-05-05 17:22 50.14290 14.38859 9089 ft 281 kts 304°
2026-05-05 17:22 50.15470 14.36424 8737 ft 281 kts 304°
2026-05-05 17:22 50.16650 14.33986 8393 ft 280 kts 304°
2026-05-05 17:22 50.17805 14.31595 8067 ft 278 kts 305°
2026-05-05 17:23 50.18951 14.29222 7726 ft 269 kts 305°
2026-05-05 17:23 50.20062 14.26920 7373 ft 262 kts 305°
2026-05-05 17:23 50.21146 14.24673 7026 ft 255 kts 305°
2026-05-05 17:23 50.22201 14.22482 6702 ft 249 kts 305°
2026-05-05 17:24 50.23238 14.20328 6409 ft 247 kts 305°
2026-05-05 17:24 50.24271 14.18181 6168 ft 247 kts 306°
2026-05-05 17:24 50.25298 14.16044 5960 ft 247 kts 305°
2026-05-05 17:24 50.26334 14.13886 5789 ft 248 kts 306°
2026-05-05 17:25 50.27367 14.11733 5609 ft 247 kts 306°
2026-05-05 17:25 50.28048 14.10312 5499 ft 246 kts 306°
2026-05-05 17:25 50.29349 14.07384 5236 ft 240 kts 293°
2026-05-05 17:25 50.29641 14.04911 5036 ft 226 kts 264°
2026-05-05 17:26 50.29200 14.02621 4843 ft 218 kts 238°
2026-05-05 17:26 50.28213 14.00856 4699 ft 216 kts 216°
2026-05-05 17:26 50.26879 13.99852 4565 ft 214 kts 188°
2026-05-05 17:26 50.25416 13.99994 4435 ft 212 kts 164°
2026-05-05 17:27 50.24045 14.00828 4332 ft 212 kts 152°
2026-05-05 17:27 50.22822 14.02105 4185 ft 211 kts 139°
2026-05-05 17:27 50.21734 14.03606 4021 ft 211 kts 136°
2026-05-05 17:27 50.20630 14.05113 3969 ft 211 kts 146°
2026-05-05 17:28 50.19476 14.06528 3895 ft 212 kts 132°
2026-05-05 17:28 50.18578 14.08296 3646 ft 205 kts 124°
2026-05-05 17:28 50.17786 14.10014 3395 ft 184 kts 124°
2026-05-05 17:28 50.17042 14.11580 3143 ft 178 kts 124°
2026-05-05 17:29 50.16305 14.13117 2934 ft 174 kts 125°
2026-05-05 17:29 50.15591 14.14597 2698 ft 167 kts 124°
2026-05-05 17:29 50.14917 14.16000 2473 ft 158 kts 124°
2026-05-05 17:29 50.14266 14.17353 2261 ft 155 kts 123°
2026-05-05 17:30 50.13623 14.18707 2091 ft 154 kts 123°
2026-05-05 17:30 50.12987 14.20030 1893 ft 151 kts 125°
2026-05-05 17:30 50.12358 14.21324 1713 ft 148 kts 126°
2026-05-05 17:30 50.11741 14.22606 1502 ft 148 kts 127°
2026-05-05 17:31 50.11139 14.23849 1308 ft 142 kts 127°
2026-05-05 17:31 50.10551 14.25062 1170 ft 133 kts 127°
2026-05-05 17:31 50.10093 14.25999 1193 ft 90 kts 127°
2026-05-05 17:31 50.09888 14.26425 1203 ft 21 kts 122°
2026-05-05 17:32 50.09876 14.26655 1209 ft 22 kts 82°
2026-05-05 17:32 50.09897 14.26879 1208 ft 16 kts 82°
2026-05-05 17:32 50.09907 14.26987 1208 ft 8 kts 82°
2026-05-05 17:32 50.09917 14.27099 1205 ft 11 kts 80°
2026-05-05 17:33 50.09948 14.27118 1202 ft 6 kts 314°
2026-05-05 17:33 50.09985 14.27042 1200 ft 11 kts 307°
2026-05-05 17:33 50.10043 14.26921 1195 ft 17 kts 307°
2026-05-05 17:33 50.10107 14.26789 1186 ft 15 kts 307°
2026-05-05 17:34 50.10164 14.26673 1181 ft 13 kts 307°
2026-05-05 17:34 50.10216 14.26563 1177 ft 11 kts 306°
2026-05-05 17:34 50.10274 14.26544 1178 ft 11 kts 28°
2026-05-05 17:34 50.10336 14.26609 1173 ft 10 kts 30°
2026-05-05 17:35 50.10382 14.26591 1174 ft 7 kts 314°
2026-05-05 17:35 50.10412 14.26563 1175 ft 4 kts 15°
2026-05-05 17:35 50.10426 14.26575 1176 ft 2 kts 30°
2026-05-05 17:35 50.10434 14.26583 1173 ft 0 kts 32°